Time,TemperatureF,DewpointF,PressureIn,WindDirection,WindDirectionDegrees,WindSpeedMPH,WindSpeedGustMPH,Humidity,HourlyPrecipIn,Conditions,Clouds,dailyrainin,SoftwareType,DateUTC
2013-05-20 00:04:00,55.0,54.5,30.01,West,270,3.0,0.0,98,0.00,,,0.08,meteohub,2013-05-19 23:04:00,
2013-05-20 00:09:00,55.0,54.5,30.01,West,270,3.0,3.0,98,0.00,,,0.00,meteohub,2013-05-19 23:09:00,
2013-05-20 00:14:00,55.0,54.5,30.01,West,270,2.0,4.0,98,0.00,,,0.00,meteohub,2013-05-19 23:14:00,
2013-05-20 00:19:00,55.0,54.5,30.01,West,270,2.0,4.0,98,0.00,,,0.00,meteohub,2013-05-19 23:19:00,
2013-05-20 00:24:00,55.2,54.7,30.01,WNW,292,3.0,4.0,98,0.00,,,0.00,meteohub,2013-05-19 23:24:00,
2013-05-20 00:29:00,55.2,54.7,30.01,WNW,292,0.0,4.0,98,0.00,,,0.00,meteohub,2013-05-19 23:29:00,
2013-05-20 00:34:00,55.0,54.5,30.01,WNW,292,0.0,4.0,98,0.00,,,0.00,meteohub,2013-05-19 23:34:00,
2013-05-20 00:39:00,55.0,54.5,30.01,WSW,248,0.0,4.0,98,0.00,,,0.00,meteohub,2013-05-19 23:39:00,
2013-05-20 00:44:00,55.0,54.5,30.01,SSE,158,0.0,3.0,98,0.00,,,0.00,meteohub,2013-05-19 23:44:00,
2013-05-20 00:49:00,55.0,54.5,29.99,SE,135,0.0,2.0,98,0.00,,,0.00,meteohub,2013-05-19 23:49:00,
2013-05-20 00:54:00,55.0,54.5,29.99,SSE,158,0.0,2.0,98,0.00,,,0.00,meteohub,2013-05-19 23:54:00,
2013-05-20 01:00:00,55.0,54.5,29.99,WSW,248,0.0,2.0,98,0.00,,,0.00,meteohub,2013-05-20 00:00:00,
2013-05-20 01:05:00,54.9,54.3,30.01,West,270,0.0,0.0,98,0.00,,,0.00,meteohub,2013-05-20 00:05:00,
2013-05-20 01:10:00,54.9,54.3,30.01,WNW,292,2.0,2.0,98,0.00,,,0.00,meteohub,2013-05-20 00:10:00,
2013-05-20 01:15:00,54.9,54.3,30.01,West,270,3.0,3.0,98,0.00,,,0.00,meteohub,2013-05-20 00:15:00,
2013-05-20 01:21:00,54.9,54.3,29.99,West,270,2.0,3.0,98,0.00,,,0.00,meteohub,2013-05-20 00:21:00,
2013-05-20 01:26:00,54.9,54.3,29.99,West,270,2.0,4.0,98,0.00,,,0.00,meteohub,2013-05-20 00:26:00,
2013-05-20 01:31:00,54.9,54.3,29.99,West,270,3.0,4.0,98,0.00,,,0.00,meteohub,2013-05-20 00:31:00,
2013-05-20 01:36:00,54.9,54.3,29.99,SW,225,0.0,4.0,98,0.00,,,0.00,meteohub,2013-05-20 00:36:00,
2013-05-20 01:41:00,54.9,54.3,29.99,West,270,2.0,4.0,98,0.00,,,0.00,meteohub,2013-05-20 00:41:00,
2013-05-20 01:46:00,54.9,54.3,29.99,WNW,292,1.0,4.0,98,0.00,,,0.00,meteohub,2013-05-20 00:46:00,
2013-05-20 01:51:00,54.7,54.1,29.99,WNW,292,4.0,4.0,98,0.00,,,0.00,meteohub,2013-05-20 00:51:00,
2013-05-20 01:56:00,54.7,54.1,29.99,West,270,3.0,4.0,98,0.00,,,0.00,meteohub,2013-05-20 00:56:00,
2013-05-20 02:01:00,54.7,54.1,29.99,West,270,2.0,4.0,98,0.00,,,0.00,meteohub,2013-05-20 01:01:00,
2013-05-20 02:06:00,54.7,54.1,29.99,West,270,0.0,4.0,98,0.00,,,0.00,meteohub,2013-05-20 01:06:00,
2013-05-20 02:11:00,54.7,54.1,29.99,WNW,292,0.0,3.0,98,0.00,,,0.00,meteohub,2013-05-20 01:11:00,
2013-05-20 02:16:00,54.7,54.1,29.99,WNW,292,0.0,2.0,98,0.00,,,0.00,meteohub,2013-05-20 01:16:00,
2013-05-20 02:21:00,54.7,54.1,29.99,West,270,0.0,1.0,98,0.00,,,0.00,meteohub,2013-05-20 01:21:00,
2013-05-20 02:26:00,54.7,54.1,29.99,WSW,248,0.0,3.0,98,0.00,,,0.00,meteohub,2013-05-20 01:26:00,
2013-05-20 02:31:00,54.7,54.1,29.99,South,180,0.0,3.0,98,0.00,,,0.00,meteohub,2013-05-20 01:31:00,
2013-05-20 02:36:00,54.7,54.1,29.99,SSW,202,0.0,3.0,98,0.00,,,0.00,meteohub,2013-05-20 01:36:00,
2013-05-20 02:41:00,54.7,54.1,29.99,SSW,202,0.0,0.0,98,0.00,,,0.00,meteohub,2013-05-20 01:41:00,
2013-05-20 02:46:00,54.7,54.1,29.99,WSW,248,0.0,0.0,98,0.00,,,0.00,meteohub,2013-05-20 01:46:00,
2013-05-20 02:52:00,54.7,54.1,29.99,WSW,248,0.0,0.0,98,0.00,,,0.00,meteohub,2013-05-20 01:52:00,
2013-05-20 02:57:00,54.7,54.1,29.99,WSW,248,0.0,0.0,98,0.00,,,0.00,meteohub,2013-05-20 01:57:00,
2013-05-20 03:02:00,54.7,54.1,29.99,WSW,248,0.0,0.0,98,0.00,,,0.00,meteohub,2013-05-20 02:02:00,
2013-05-20 03:07:00,54.7,54.1,29.99,SW,225,0.0,0.0,98,0.00,,,0.00,meteohub,2013-05-20 02:07:00,
2013-05-20 03:12:00,54.7,54.1,29.99,SW,225,0.0,0.0,98,0.00,,,0.00,meteohub,2013-05-20 02:12:00,
2013-05-20 03:17:00,54.7,54.1,29.99,WSW,248,0.0,1.0,98,0.00,,,0.00,meteohub,2013-05-20 02:17:00,
2013-05-20 03:22:00,54.7,54.1,29.99,WSW,248,6.0,6.0,98,0.00,,,0.00,meteohub,2013-05-20 02:22:00,
2013-05-20 03:27:00,54.5,54.0,29.99,WNW,292,3.0,6.0,98,0.00,,,0.00,meteohub,2013-05-20 02:27:00,
2013-05-20 03:32:00,54.5,54.0,29.99,WNW,292,4.0,6.0,98,0.00,,,0.00,meteohub,2013-05-20 02:32:00,
2013-05-20 03:37:00,54.5,54.0,29.99,West,270,1.0,6.0,98,0.00,,,0.00,meteohub,2013-05-20 02:37:00,
2013-05-20 03:42:00,54.5,54.0,29.99,WNW,292,6.0,6.0,98,0.00,,,0.00,meteohub,2013-05-20 02:42:00,
2013-05-20 03:47:00,54.5,54.0,29.99,WNW,292,6.0,6.0,98,0.00,,,0.00,meteohub,2013-05-20 02:47:00,
2013-05-20 03:52:00,54.5,54.0,29.99,WNW,292,5.0,6.0,98,0.00,,,0.00,meteohub,2013-05-20 02:52:00,
2013-05-20 03:57:00,54.5,54.0,29.99,West,270,2.0,6.0,98,0.00,,,0.00,meteohub,2013-05-20 02:57:00,
2013-05-20 04:02:00,54.5,54.0,29.99,West,270,4.0,6.0,98,0.00,,,0.00,meteohub,2013-05-20 03:02:00,
2013-05-20 04:07:00,54.5,54.0,29.99,West,270,3.0,6.0,98,0.00,,,0.00,meteohub,2013-05-20 03:07:00,
2013-05-20 04:12:00,54.5,54.0,29.99,West,270,2.0,4.0,98,0.00,,,0.00,meteohub,2013-05-20 03:12:00,
2013-05-20 04:17:00,54.5,54.0,29.99,SSW,202,2.0,5.0,98,0.00,,,0.00,meteohub,2013-05-20 03:17:00,
2013-05-20 04:22:00,54.5,54.0,29.99,WSW,248,0.0,5.0,98,0.00,,,0.00,meteohub,2013-05-20 03:22:00,
2013-05-20 04:27:00,54.5,54.0,29.99,WSW,248,0.0,5.0,98,0.00,,,0.00,meteohub,2013-05-20 03:27:00,
2013-05-20 04:32:00,54.5,54.0,29.99,WSW,248,0.0,3.0,98,0.00,,,0.00,meteohub,2013-05-20 03:32:00,
2013-05-20 04:38:00,54.5,54.0,29.99,WSW,248,0.0,3.0,98,0.00,,,0.00,meteohub,2013-05-20 03:38:00,
2013-05-20 04:43:00,54.5,54.0,29.99,West,270,3.0,3.0,98,0.00,,,0.00,meteohub,2013-05-20 03:43:00,
2013-05-20 04:48:00,54.5,54.0,29.99,WSW,248,4.0,4.0,98,0.00,,,0.00,meteohub,2013-05-20 03:48:00,
2013-05-20 04:53:00,54.5,54.0,29.99,West,270,5.0,5.0,98,0.00,,,0.00,meteohub,2013-05-20 03:53:00,
2013-05-20 04:58:00,54.5,54.0,29.99,West,270,3.0,5.0,98,0.00,,,0.00,meteohub,2013-05-20 03:58:00,
2013-05-20 05:01:00,54.5,54.0,29.99,West,270,4.0,5.0,98,0.00,,,0.00,meteohub,2013-05-20 04:01:00,
2013-05-20 05:02:00,54.5,54.0,29.99,West,270,4.0,5.0,98,0.00,,,0.00,meteohub,2013-05-20 04:02:00,
2013-05-20 05:04:00,54.5,54.0,29.99,West,270,4.0,5.0,98,0.00,,,0.00,meteohub,2013-05-20 04:04:00,
2013-05-20 05:06:00,54.5,54.0,29.99,West,270,6.0,6.0,98,0.00,,,0.00,meteohub,2013-05-20 04:06:00,
2013-05-20 05:11:00,54.5,54.0,29.99,WNW,292,8.0,9.0,98,0.00,,,0.00,meteohub,2013-05-20 04:11:00,
2013-05-20 05:16:00,54.5,54.0,29.99,WNW,292,9.0,9.0,98,0.00,,,0.00,meteohub,2013-05-20 04:16:00,
2013-05-20 05:21:00,54.5,54.0,29.99,WNW,292,8.0,10.0,98,0.00,,,0.00,meteohub,2013-05-20 04:21:00,
2013-05-20 05:26:00,54.5,54.0,29.99,WNW,292,7.0,10.0,98,0.00,,,0.00,meteohub,2013-05-20 04:26:00,
2013-05-20 05:31:00,54.5,54.0,29.99,WNW,292,7.0,10.0,98,0.00,,,0.00,meteohub,2013-05-20 04:31:00,
2013-05-20 05:36:00,54.3,53.8,29.99,WNW,292,8.0,10.0,98,0.00,,,0.00,meteohub,2013-05-20 04:36:00,
2013-05-20 05:41:00,54.3,53.8,29.99,NW,315,4.0,10.0,98,0.00,,,0.00,meteohub,2013-05-20 04:41:00,
2013-05-20 05:46:00,54.3,53.8,29.99,West,270,4.0,10.0,98,0.00,,,0.00,meteohub,2013-05-20 04:46:00,
2013-05-20 05:51:00,54.3,53.8,29.99,WSW,248,0.0,8.0,98,0.00,,,0.00,meteohub,2013-05-20 04:51:00,
2013-05-20 05:56:00,54.3,53.8,29.99,West,270,0.0,5.0,98,0.00,,,0.00,meteohub,2013-05-20 04:56:00,
2013-05-20 06:01:00,54.3,53.8,29.99,North,0,0.0,5.0,98,0.00,,,0.00,meteohub,2013-05-20 05:01:00,
2013-05-20 06:06:00,54.3,53.8,29.99,West,270,0.0,4.0,98,0.00,,,0.00,meteohub,2013-05-20 05:06:00,
2013-05-20 06:11:00,54.3,53.8,29.99,West,270,2.0,4.0,98,0.00,,,0.00,meteohub,2013-05-20 05:11:00,
2013-05-20 06:17:00,54.3,53.8,29.99,West,270,3.0,4.0,98,0.00,,,0.00,meteohub,2013-05-20 05:17:00,
2013-05-20 06:22:00,54.5,54.0,29.99,West,270,2.0,4.0,98,0.00,,,0.00,meteohub,2013-05-20 05:22:00,
2013-05-20 06:27:00,54.5,54.0,29.99,West,270,0.0,4.0,98,0.00,,,0.00,meteohub,2013-05-20 05:27:00,
2013-05-20 06:32:00,54.5,54.0,29.99,West,270,0.0,4.0,98,0.00,,,0.00,meteohub,2013-05-20 05:32:00,
2013-05-20 06:37:00,54.5,54.0,29.99,West,270,0.0,2.0,98,0.00,,,0.00,meteohub,2013-05-20 05:37:00,
2013-05-20 06:42:00,54.5,54.0,29.99,West,270,2.0,3.0,98,0.00,,,0.00,meteohub,2013-05-20 05:42:00,
2013-05-20 06:47:00,54.7,54.1,29.99,WNW,292,2.0,5.0,98,0.00,,,0.00,meteohub,2013-05-20 05:47:00,
2013-05-20 06:52:00,54.7,54.1,29.99,West,270,0.0,5.0,98,0.00,,,0.00,meteohub,2013-05-20 05:52:00,
2013-05-20 06:57:00,54.7,54.1,29.99,WNW,292,3.0,5.0,98,0.00,,,0.00,meteohub,2013-05-20 05:57:00,
2013-05-20 07:02:00,54.7,54.1,29.99,West,270,4.0,5.0,98,0.00,,,0.00,meteohub,2013-05-20 06:02:00,
2013-05-20 07:07:00,54.7,54.1,29.99,West,270,4.0,6.0,98,0.00,,,0.00,meteohub,2013-05-20 06:07:00,
2013-05-20 07:12:00,54.7,54.1,29.99,West,270,4.0,6.0,98,0.00,,,0.00,meteohub,2013-05-20 06:12:00,
2013-05-20 07:17:00,54.7,54.1,29.99,West,270,0.0,6.0,98,0.00,,,0.00,meteohub,2013-05-20 06:17:00,
2013-05-20 07:22:00,54.7,54.1,29.99,WSW,248,4.0,6.0,98,0.00,,,0.00,meteohub,2013-05-20 06:22:00,
2013-05-20 07:27:00,54.9,54.3,29.99,WSW,248,3.0,6.0,98,0.00,,,0.00,meteohub,2013-05-20 06:27:00,
2013-05-20 07:32:00,54.9,54.3,29.99,WSW,248,4.0,5.0,98,0.00,,,0.00,meteohub,2013-05-20 06:32:00,
2013-05-20 07:37:00,54.9,54.3,29.99,WSW,248,5.0,6.0,98,0.00,,,0.00,meteohub,2013-05-20 06:37:00,
2013-05-20 07:42:00,54.9,54.3,29.99,West,270,5.0,6.0,98,0.00,,,0.00,meteohub,2013-05-20 06:42:00,
2013-05-20 07:47:00,55.0,54.5,29.99,West,270,4.0,7.0,98,0.00,,,0.00,meteohub,2013-05-20 06:47:00,
2013-05-20 07:52:00,55.0,54.5,29.99,West,270,3.0,7.0,98,0.00,,,0.00,meteohub,2013-05-20 06:52:00,
2013-05-20 07:57:00,55.2,54.7,29.99,West,270,7.0,7.0,98,0.00,,,0.00,meteohub,2013-05-20 06:57:00,
2013-05-20 08:03:00,55.2,54.7,29.99,WNW,292,3.0,7.0,98,0.00,,,0.00,meteohub,2013-05-20 07:03:00,
2013-05-20 08:08:00,55.4,54.9,29.99,WNW,292,8.0,8.0,98,0.00,,,0.00,meteohub,2013-05-20 07:08:00,
2013-05-20 08:13:00,55.4,54.9,29.99,West,270,5.0,8.0,98,0.00,,,0.00,meteohub,2013-05-20 07:13:00,
2013-05-20 08:18:00,55.6,55.0,29.99,WNW,292,8.0,8.0,98,0.00,,,0.00,meteohub,2013-05-20 07:18:00,
2013-05-20 08:23:00,55.9,55.4,29.99,WSW,248,6.0,10.0,98,0.00,,,0.00,meteohub,2013-05-20 07:23:00,
2013-05-20 08:28:00,55.9,55.4,29.99,West,270,6.0,10.0,98,0.00,,,0.00,meteohub,2013-05-20 07:28:00,
2013-05-20 08:33:00,55.9,55.4,29.99,WNW,292,6.0,11.0,98,0.00,,,0.00,meteohub,2013-05-20 07:33:00,
2013-05-20 08:38:00,56.1,55.6,29.99,West,270,9.0,11.0,98,0.00,,,0.00,meteohub,2013-05-20 07:38:00,
2013-05-20 08:43:00,56.1,55.6,29.99,WNW,292,8.0,11.0,98,0.00,,,0.00,meteohub,2013-05-20 07:43:00,
2013-05-20 08:48:00,56.3,55.8,29.99,West,270,5.0,10.0,98,0.00,,,0.00,meteohub,2013-05-20 07:48:00,
2013-05-20 08:53:00,56.5,55.9,29.99,West,270,6.0,10.0,98,0.00,,,0.00,meteohub,2013-05-20 07:53:00,
2013-05-20 08:58:00,56.7,56.1,29.99,WSW,248,5.0,9.0,98,0.00,,,0.00,meteohub,2013-05-20 07:58:00,
2013-05-20 09:03:00,56.7,56.1,29.99,West,270,6.0,9.0,98,0.00,,,0.00,meteohub,2013-05-20 08:03:00,
2013-05-20 09:08:00,56.7,56.1,29.99,WSW,248,4.0,6.0,98,0.00,,,0.00,meteohub,2013-05-20 08:08:00,
2013-05-20 09:13:00,57.0,56.5,29.99,WSW,248,5.0,6.0,98,0.00,,,0.00,meteohub,2013-05-20 08:13:00,
2013-05-20 09:18:00,57.4,56.8,29.99,NW,315,6.0,6.0,98,0.00,,,0.00,meteohub,2013-05-20 08:18:00,
2013-05-20 09:23:00,57.7,57.2,29.99,WNW,292,8.0,9.0,98,0.00,,,0.00,meteohub,2013-05-20 08:23:00,
2013-05-20 09:28:00,57.9,57.4,29.99,WNW,292,7.0,9.0,98,0.00,,,0.00,meteohub,2013-05-20 08:28:00,
2013-05-20 09:33:00,58.1,57.6,29.99,West,270,4.0,9.0,98,0.00,,,0.00,meteohub,2013-05-20 08:33:00,
2013-05-20 09:38:00,58.5,57.9,29.99,WSW,248,3.0,9.0,98,0.00,,,0.00,meteohub,2013-05-20 08:38:00,
2013-05-20 09:43:00,58.8,58.3,29.99,West,270,4.0,8.0,98,0.00,,,0.00,meteohub,2013-05-20 08:43:00,
2013-05-20 09:49:00,58.6,58.1,29.99,West,270,5.0,9.0,98,0.00,,,0.00,meteohub,2013-05-20 08:49:00,
2013-05-20 09:54:00,59.0,58.5,29.99,WNW,292,5.0,9.0,98,0.00,,,0.00,meteohub,2013-05-20 08:54:00,
2013-05-20 09:59:00,59.2,58.6,29.99,West,270,5.0,9.0,98,0.00,,,0.00,meteohub,2013-05-20 08:59:00,
2013-05-20 10:04:00,59.4,58.8,29.99,West,270,0.0,7.0,98,0.00,,,0.00,meteohub,2013-05-20 09:04:00,
2013-05-20 10:09:00,59.4,58.8,29.99,WNW,292,5.0,7.0,98,0.00,,,0.00,meteohub,2013-05-20 09:09:00,
2013-05-20 10:14:00,59.7,59.2,29.99,SW,225,3.0,6.0,98,0.00,,,0.00,meteohub,2013-05-20 09:14:00,
2013-05-20 10:19:00,59.7,59.2,29.99,SW,225,4.0,6.0,98,0.00,,,0.00,meteohub,2013-05-20 09:19:00,
2013-05-20 10:24:00,59.5,59.0,29.99,WSW,248,4.0,6.0,98,0.00,,,0.00,meteohub,2013-05-20 09:24:00,
2013-05-20 10:29:00,59.5,58.6,29.99,West,270,4.0,7.0,97,0.00,,,0.00,meteohub,2013-05-20 09:29:00,
2013-05-20 10:34:00,60.1,59.0,29.99,SW,225,3.0,7.0,96,0.00,,,0.00,meteohub,2013-05-20 09:34:00,
2013-05-20 10:39:00,60.4,59.0,29.99,WSW,248,1.0,7.0,95,0.00,,,0.00,meteohub,2013-05-20 09:39:00,
2013-05-20 10:44:00,60.6,59.2,29.99,SW,225,6.0,6.0,95,0.00,,,0.00,meteohub,2013-05-20 09:44:00,
2013-05-20 10:49:00,60.8,59.0,29.99,SW,225,4.0,6.0,94,0.00,,,0.00,meteohub,2013-05-20 09:49:00,
2013-05-20 10:54:00,60.8,58.8,29.99,WSW,248,4.0,9.0,93,0.00,,,0.00,meteohub,2013-05-20 09:54:00,
2013-05-20 10:59:00,61.0,58.6,29.99,WSW,248,2.0,9.0,92,0.00,,,0.00,meteohub,2013-05-20 09:59:00,
2013-05-20 11:04:00,61.3,58.6,29.99,SSW,202,3.0,9.0,91,0.00,,,0.00,meteohub,2013-05-20 10:04:00,
2013-05-20 11:09:00,61.7,59.0,29.99,South,180,3.0,6.0,91,0.00,,,0.00,meteohub,2013-05-20 10:09:00,
2013-05-20 11:14:00,62.2,59.4,29.99,SSW,202,6.0,8.0,90,0.00,,,0.00,meteohub,2013-05-20 10:14:00,
2013-05-20 11:19:00,62.2,58.3,29.99,SSW,202,4.0,9.0,87,0.00,,,0.00,meteohub,2013-05-20 10:19:00,
2013-05-20 11:24:00,62.2,57.7,29.99,SW,225,7.0,9.0,85,0.00,,,0.00,meteohub,2013-05-20 10:24:00,
2013-05-20 11:29:00,62.4,57.2,29.99,WSW,248,8.0,9.0,83,0.00,,,0.00,meteohub,2013-05-20 10:29:00,
2013-05-20 11:35:00,62.2,56.7,29.99,SSW,202,7.0,8.0,82,0.00,,,0.00,meteohub,2013-05-20 10:35:00,
2013-05-20 11:40:00,62.4,56.5,29.99,SSW,202,5.0,8.0,81,0.00,,,0.00,meteohub,2013-05-20 10:40:00,
2013-05-20 11:45:00,62.6,56.3,29.99,SSW,202,6.0,8.0,80,0.00,,,0.00,meteohub,2013-05-20 10:45:00,
2013-05-20 11:50:00,62.6,56.3,29.99,SW,225,5.0,8.0,80,0.00,,,0.00,meteohub,2013-05-20 10:50:00,
2013-05-20 11:55:00,63.5,57.6,29.99,SSW,202,8.0,8.0,81,0.00,,,0.00,meteohub,2013-05-20 10:55:00,
2013-05-20 12:00:00,64.2,59.0,29.99,South,180,8.0,12.0,83,0.00,,,0.00,meteohub,2013-05-20 11:00:00,
2013-05-20 12:05:00,64.0,58.5,29.99,SW,225,6.0,12.0,82,0.00,,,0.00,meteohub,2013-05-20 11:05:00,
2013-05-20 12:10:00,64.6,57.9,29.99,SW,225,4.0,12.0,79,0.00,,,0.00,meteohub,2013-05-20 11:10:00,
2013-05-20 12:15:00,64.6,57.2,29.99,West,270,6.0,11.0,77,0.00,,,0.00,meteohub,2013-05-20 11:15:00,
2013-05-20 12:20:00,65.1,57.7,29.99,SSW,202,1.0,8.0,77,0.00,,,0.00,meteohub,2013-05-20 11:20:00,
2013-05-20 12:25:00,65.3,57.2,29.99,SW,225,6.0,9.0,75,0.00,,,0.00,meteohub,2013-05-20 11:25:00,
2013-05-20 12:30:00,66.0,58.3,29.99,South,180,6.0,9.0,76,0.00,,,0.00,meteohub,2013-05-20 11:30:00,
2013-05-20 12:35:00,66.2,58.5,29.99,SSW,202,8.0,11.0,76,0.00,,,0.00,meteohub,2013-05-20 11:35:00,
2013-05-20 12:40:00,66.0,56.7,29.99,South,180,6.0,11.0,72,0.00,,,0.00,meteohub,2013-05-20 11:40:00,
2013-05-20 12:45:00,66.7,57.7,29.99,South,180,8.0,11.0,73,0.00,,,0.00,meteohub,2013-05-20 11:45:00,
2013-05-20 12:50:00,66.4,56.3,29.99,SW,225,3.0,11.0,70,0.00,,,0.00,meteohub,2013-05-20 11:50:00,
2013-05-20 12:55:00,66.6,56.5,29.99,SSW,202,6.0,11.0,70,0.00,,,0.00,meteohub,2013-05-20 11:55:00,
2013-05-20 13:00:00,66.6,56.1,29.99,SSE,158,3.0,9.0,69,0.00,,,0.00,meteohub,2013-05-20 12:00:00,
2013-05-20 13:05:00,67.3,57.2,29.99,SSW,202,4.0,9.0,70,0.00,,,0.00,meteohub,2013-05-20 12:05:00,
2013-05-20 13:10:00,67.1,55.4,29.99,WSW,248,8.0,9.0,66,0.00,,,0.00,meteohub,2013-05-20 12:10:00,
2013-05-20 13:15:00,67.3,55.0,29.99,South,180,6.0,9.0,65,0.00,,,0.00,meteohub,2013-05-20 12:15:00,
2013-05-20 13:21:00,67.6,55.9,29.99,SSE,158,5.0,9.0,66,0.00,,,0.00,meteohub,2013-05-20 12:21:00,
2013-05-20 13:26:00,67.8,56.1,29.99,SSW,202,3.0,9.0,66,0.00,,,0.00,meteohub,2013-05-20 12:26:00,
2013-05-20 13:31:00,67.6,55.0,29.99,South,180,3.0,8.0,64,0.00,,,0.00,meteohub,2013-05-20 12:31:00,
2013-05-20 13:36:00,67.6,55.0,29.99,WSW,248,5.0,6.0,64,0.00,,,0.00,meteohub,2013-05-20 12:36:00,
2013-05-20 13:41:00,68.2,55.9,29.99,West,270,2.0,6.0,65,0.00,,,0.00,meteohub,2013-05-20 12:41:00,
2013-05-20 13:46:00,68.4,55.8,29.99,SE,135,0.0,6.0,64,0.00,,,0.00,meteohub,2013-05-20 12:46:00,
2013-05-20 13:51:00,68.9,56.3,29.99,South,180,5.0,6.0,64,0.00,,,0.00,meteohub,2013-05-20 12:51:00,
2013-05-20 13:56:00,69.1,55.6,29.99,WSW,248,4.0,6.0,62,0.00,,,0.00,meteohub,2013-05-20 12:56:00,
2013-05-20 14:01:00,69.4,56.7,29.99,WNW,292,6.0,6.0,64,0.00,,,0.00,meteohub,2013-05-20 13:01:00,
2013-05-20 14:06:00,69.1,54.7,29.99,WSW,248,6.0,11.0,60,0.00,,,0.00,meteohub,2013-05-20 13:06:00,
2013-05-20 14:11:00,68.7,53.4,29.99,SW,225,4.0,11.0,58,0.00,,,0.00,meteohub,2013-05-20 13:11:00,
2013-05-20 14:16:00,68.5,52.2,29.99,West,270,6.0,11.0,56,0.00,,,0.00,meteohub,2013-05-20 13:16:00,
2013-05-20 15:29:00,68.5,52.2,-100.00,SW,225,4.0,-999.0,56,-99.99,,,0.00,meteohub,2013-05-20 14:29:00,
2013-05-20 15:34:00,68.4,52.0,29.99,West,270,8.0,8.0,56,0.00,,,0.00,meteohub,2013-05-20 14:34:00,
2013-05-20 15:40:00,68.2,52.9,29.99,West,270,4.0,11.0,58,0.00,,,0.00,meteohub,2013-05-20 14:40:00,
2013-05-20 15:45:00,67.8,54.9,29.99,SW,225,6.0,11.0,63,0.00,,,0.00,meteohub,2013-05-20 14:45:00,
2013-05-20 15:50:00,67.3,54.7,29.99,SW,225,6.0,11.0,64,0.01,,,0.01,meteohub,2013-05-20 14:50:00,
2013-05-20 15:55:00,66.7,55.0,29.99,SW,225,4.0,9.0,66,0.01,,,0.02,meteohub,2013-05-20 14:55:00,
2013-05-20 16:00:00,66.4,55.9,29.99,WSW,248,4.0,8.0,69,0.02,,,0.02,meteohub,2013-05-20 15:00:00,
2013-05-20 16:05:00,66.2,56.1,29.99,WSW,248,5.0,7.0,70,0.02,,,0.02,meteohub,2013-05-20 15:05:00,
2013-05-20 16:10:00,66.0,56.7,29.99,SW,225,3.0,7.0,72,0.02,,,0.02,meteohub,2013-05-20 15:10:00,
2013-05-20 16:15:00,66.0,57.6,29.99,WSW,248,5.0,7.0,74,0.02,,,0.02,meteohub,2013-05-20 15:15:00,
2013-05-20 16:20:00,66.0,57.9,29.99,SSW,202,4.0,7.0,75,0.02,,,0.02,meteohub,2013-05-20 15:20:00,
2013-05-20 16:25:00,66.0,58.3,29.99,WSW,248,5.0,6.0,76,0.02,,,0.02,meteohub,2013-05-20 15:25:00,
2013-05-20 16:30:00,66.4,58.6,29.99,SSW,202,3.0,6.0,76,0.02,,,0.02,meteohub,2013-05-20 15:30:00,
2013-05-20 16:35:00,66.7,59.0,29.99,WSW,248,5.0,6.0,76,0.02,,,0.02,meteohub,2013-05-20 15:35:00,
2013-05-20 16:40:00,67.1,59.0,29.99,WSW,248,6.0,6.0,75,0.02,,,0.02,meteohub,2013-05-20 15:40:00,
2013-05-20 16:45:00,67.5,58.5,29.99,SW,225,6.0,8.0,73,0.01,,,0.02,meteohub,2013-05-20 15:45:00,
2013-05-20 16:50:00,67.8,58.5,29.99,SW,225,3.0,8.0,72,0.00,,,0.02,meteohub,2013-05-20 15:50:00,
2013-05-20 16:55:00,68.2,58.1,29.99,WSW,248,8.0,8.0,70,0.00,,,0.02,meteohub,2013-05-20 15:55:00,
2013-05-20 17:00:00,68.5,57.2,29.99,WSW,248,7.0,9.0,67,0.00,,,0.02,meteohub,2013-05-20 16:00:00,
2013-05-20 17:05:00,69.4,58.5,29.99,WSW,248,9.0,11.0,68,0.00,,,0.02,meteohub,2013-05-20 16:05:00,
2013-05-20 17:10:00,70.0,57.2,29.99,WSW,248,8.0,11.0,64,0.00,,,0.02,meteohub,2013-05-20 16:10:00,
2013-05-20 17:15:00,69.3,53.8,29.99,WSW,248,8.0,11.0,58,0.00,,,0.02,meteohub,2013-05-20 16:15:00,
2013-05-20 17:20:00,68.9,54.9,29.99,West,270,4.0,11.0,61,0.00,,,0.02,meteohub,2013-05-20 16:20:00,
2013-05-20 17:26:00,68.4,53.4,29.99,North,0,6.0,11.0,59,0.00,,,0.02,meteohub,2013-05-20 16:26:00,
2013-05-20 17:31:00,68.0,52.7,29.99,NNE,22,8.0,9.0,58,0.00,,,0.02,meteohub,2013-05-20 16:31:00,
2013-05-20 17:36:00,68.5,53.2,29.99,NNE,22,6.0,10.0,58,0.00,,,0.02,meteohub,2013-05-20 16:36:00,
2013-05-20 17:41:00,68.5,53.6,29.99,NE,45,4.0,10.0,59,0.00,,,0.02,meteohub,2013-05-20 16:41:00,
2013-05-20 17:46:00,69.1,54.7,29.99,ENE,68,6.0,10.0,60,0.00,,,0.02,meteohub,2013-05-20 16:46:00,
2013-05-20 17:51:00,69.3,54.9,29.99,ENE,68,3.0,7.0,60,0.00,,,0.02,meteohub,2013-05-20 16:51:00,
2013-05-20 17:56:00,69.3,54.3,29.99,ENE,68,3.0,6.0,59,0.00,,,0.02,meteohub,2013-05-20 16:56:00,
2013-05-20 18:01:00,69.1,54.1,29.99,NNE,22,4.0,6.0,59,0.00,,,0.02,meteohub,2013-05-20 17:01:00,
2013-05-20 18:06:00,68.7,53.4,29.99,NNE,22,2.0,5.0,58,0.00,,,0.02,meteohub,2013-05-20 17:06:00,
2013-05-20 18:11:00,68.5,53.2,29.99,NNE,22,3.0,4.0,58,0.00,,,0.02,meteohub,2013-05-20 17:11:00,
2013-05-20 18:16:00,68.4,53.1,29.99,NE,45,3.0,4.0,58,0.00,,,0.02,meteohub,2013-05-20 17:16:00,
2013-05-20 18:21:00,68.4,53.4,29.99,NE,45,5.0,5.0,59,0.00,,,0.02,meteohub,2013-05-20 17:21:00,
2013-05-20 18:26:00,68.0,53.1,29.99,NNE,22,5.0,6.0,59,0.00,,,0.02,meteohub,2013-05-20 17:26:00,
2013-05-20 18:31:00,67.6,53.2,29.99,NNE,22,7.0,7.0,60,0.00,,,0.02,meteohub,2013-05-20 17:31:00,
2013-05-20 18:36:00,67.3,53.4,29.99,NE,45,6.0,8.0,61,0.00,,,0.02,meteohub,2013-05-20 17:36:00,
2013-05-20 18:41:00,66.9,54.0,29.99,NNE,22,6.0,9.0,63,0.00,,,0.02,meteohub,2013-05-20 17:41:00,
2013-05-20 18:46:00,66.4,53.8,29.99,NE,45,7.0,9.0,64,0.00,,,0.02,meteohub,2013-05-20 17:46:00,
2013-05-20 18:51:00,66.0,54.0,29.99,NNE,22,8.0,9.0,65,0.00,,,0.02,meteohub,2013-05-20 17:51:00,
2013-05-20 18:57:00,65.7,54.5,29.99,NE,45,6.0,9.0,67,0.00,,,0.02,meteohub,2013-05-20 17:57:00,
2013-05-20 19:02:00,65.5,55.0,29.99,NE,45,5.0,9.0,69,0.00,,,0.02,meteohub,2013-05-20 18:02:00,
2013-05-20 19:07:00,65.3,55.6,29.99,NNE,22,9.0,9.0,71,0.00,,,0.02,meteohub,2013-05-20 18:07:00,
2013-05-20 19:12:00,64.9,55.4,29.99,NE,45,7.0,9.0,71,0.00,,,0.02,meteohub,2013-05-20 18:12:00,
2013-05-20 19:17:00,64.6,55.4,29.99,NE,45,8.0,11.0,72,0.00,,,0.02,meteohub,2013-05-20 18:17:00,
2013-05-20 19:22:00,64.4,55.9,29.99,East,90,6.0,11.0,74,0.00,,,0.02,meteohub,2013-05-20 18:22:00,
2013-05-20 19:27:00,63.7,55.2,29.99,East,90,10.0,11.0,74,0.00,,,0.02,meteohub,2013-05-20 18:27:00,
2013-05-20 19:32:00,63.1,55.0,30.01,East,90,4.0,11.0,75,0.00,,,0.02,meteohub,2013-05-20 18:32:00,
2013-05-20 19:37:00,63.0,54.9,30.01,East,90,7.0,11.0,75,0.00,,,0.02,meteohub,2013-05-20 18:37:00,
2013-05-20 19:42:00,62.8,55.0,30.01,East,90,6.0,11.0,76,0.00,,,0.02,meteohub,2013-05-20 18:42:00,
2013-05-20 19:47:00,62.6,55.2,30.01,ENE,68,4.0,9.0,77,0.00,,,0.02,meteohub,2013-05-20 18:47:00,
2013-05-20 19:52:00,62.4,55.4,30.01,NE,45,6.0,9.0,78,0.00,,,0.02,meteohub,2013-05-20 18:52:00,
2013-05-20 19:57:00,62.2,55.6,30.01,NE,45,6.0,9.0,79,0.00,,,0.02,meteohub,2013-05-20 18:57:00,
2013-05-20 20:02:00,62.1,55.8,30.01,NE,45,8.0,9.0,80,0.00,,,0.02,meteohub,2013-05-20 19:02:00,
2013-05-20 20:07:00,61.9,55.6,30.01,ENE,68,9.0,10.0,80,0.00,,,0.02,meteohub,2013-05-20 19:07:00,
2013-05-20 20:12:00,61.5,55.2,30.01,NE,45,8.0,10.0,80,0.00,,,0.02,meteohub,2013-05-20 19:12:00,
2013-05-20 20:17:00,61.3,55.0,30.01,ENE,68,5.0,10.0,80,0.00,,,0.02,meteohub,2013-05-20 19:17:00,
2013-05-20 20:22:00,61.3,55.0,30.01,NNE,22,8.0,9.0,80,0.00,,,0.02,meteohub,2013-05-20 19:22:00,
2013-05-20 20:27:00,61.2,55.2,30.01,NNE,22,8.0,10.0,81,0.00,,,0.02,meteohub,2013-05-20 19:27:00,
2013-05-20 20:32:00,61.0,55.0,30.04,NE,45,7.0,11.0,81,0.00,,,0.02,meteohub,2013-05-20 19:32:00,
2013-05-20 20:37:00,61.0,55.0,30.04,ENE,68,4.0,11.0,81,0.00,,,0.02,meteohub,2013-05-20 19:37:00,
2013-05-20 20:43:00,61.0,55.4,30.04,NE,45,5.0,11.0,82,0.00,,,0.02,meteohub,2013-05-20 19:43:00,
2013-05-20 20:48:00,60.4,54.9,30.04,NE,45,11.0,14.0,82,0.00,,,0.02,meteohub,2013-05-20 19:48:00,
2013-05-20 20:53:00,59.7,54.0,30.04,East,90,9.0,14.0,81,0.00,,,0.02,meteohub,2013-05-20 19:53:00,
2013-05-20 20:58:00,59.2,53.4,30.04,East,90,6.0,14.0,81,0.00,,,0.02,meteohub,2013-05-20 19:58:00,
2013-05-20 21:03:00,58.3,52.5,30.04,NE,45,9.0,12.0,81,0.00,,,0.02,meteohub,2013-05-20 20:03:00,
2013-05-20 21:08:00,57.6,51.8,30.04,East,90,6.0,13.0,81,0.00,,,0.02,meteohub,2013-05-20 20:08:00,
2013-05-20 21:13:00,57.2,51.4,30.04,East,90,6.0,13.0,81,0.00,,,0.02,meteohub,2013-05-20 20:13:00,
2013-05-20 21:18:00,56.8,51.1,30.04,East,90,6.0,13.0,81,0.00,,,0.02,meteohub,2013-05-20 20:18:00,
2013-05-20 21:23:00,56.7,51.3,30.04,East,90,9.0,13.0,82,0.00,,,0.02,meteohub,2013-05-20 20:23:00,
2013-05-20 21:28:00,56.5,51.1,30.04,East,90,6.0,11.0,82,0.00,,,0.02,meteohub,2013-05-20 20:28:00,
2013-05-20 21:33:00,56.3,51.3,30.04,East,90,5.0,11.0,83,0.00,,,0.02,meteohub,2013-05-20 20:33:00,
2013-05-20 21:38:00,56.1,50.7,30.04,ESE,112,4.0,11.0,82,0.00,,,0.02,meteohub,2013-05-20 20:38:00,
2013-05-20 21:43:00,55.8,50.7,30.04,ESE,112,7.0,11.0,83,0.00,,,0.02,meteohub,2013-05-20 20:43:00,
2013-05-20 21:48:00,55.6,50.5,30.07,East,90,8.0,9.0,83,0.00,,,0.02,meteohub,2013-05-20 20:48:00,
2013-05-20 21:53:00,55.2,50.5,30.07,East,90,3.0,9.0,84,0.00,,,0.02,meteohub,2013-05-20 20:53:00,
2013-05-20 21:58:00,55.0,50.0,30.07,ESE,112,4.0,9.0,83,0.00,,,0.02,meteohub,2013-05-20 20:58:00,
2013-05-20 22:03:00,54.7,49.6,30.07,East,90,4.0,8.0,83,0.00,,,0.02,meteohub,2013-05-20 21:03:00,
2013-05-20 22:08:00,54.7,50.0,30.07,East,90,6.0,8.0,84,0.00,,,0.02,meteohub,2013-05-20 21:08:00,
2013-05-20 22:13:00,54.5,49.8,30.07,East,90,6.0,8.0,84,0.00,,,0.02,meteohub,2013-05-20 21:13:00,
2013-05-20 22:19:00,54.1,49.5,30.07,East,90,5.0,8.0,84,0.00,,,0.02,meteohub,2013-05-20 21:19:00,
2013-05-20 22:24:00,54.1,49.5,30.07,ENE,68,6.0,8.0,84,0.00,,,0.02,meteohub,2013-05-20 21:24:00,
2013-05-20 22:29:00,54.0,49.3,30.07,East,90,6.0,8.0,84,0.00,,,0.02,meteohub,2013-05-20 21:29:00,
2013-05-20 22:35:00,53.8,49.5,30.07,SE,135,4.0,8.0,85,0.00,,,0.02,meteohub,2013-05-20 21:35:00,
2013-05-20 22:40:00,53.8,49.5,30.07,East,90,6.0,6.0,85,0.00,,,0.02,meteohub,2013-05-20 21:40:00,
2013-05-20 22:45:00,53.6,49.3,30.07,ESE,112,5.0,6.0,85,0.00,,,0.02,meteohub,2013-05-20 21:45:00,
2013-05-20 22:50:00,53.4,49.1,30.07,ESE,112,6.0,8.0,85,0.00,,,0.02,meteohub,2013-05-20 21:50:00,
2013-05-20 22:55:00,53.2,48.9,30.07,ESE,112,6.0,8.0,85,0.00,,,0.02,meteohub,2013-05-20 21:55:00,
2013-05-20 23:00:00,53.1,48.7,30.07,East,90,7.0,9.0,85,0.00,,,0.02,meteohub,2013-05-20 22:00:00,
2013-05-20 23:05:00,52.9,48.7,30.07,East,90,6.0,9.0,86,0.00,,,0.02,meteohub,2013-05-20 22:05:00,
2013-05-20 23:10:00,52.7,48.6,30.07,East,90,4.0,9.0,86,0.00,,,0.02,meteohub,2013-05-20 22:10:00,
2013-05-20 23:15:00,52.7,48.9,30.07,East,90,4.0,8.0,87,0.00,,,0.02,meteohub,2013-05-20 22:15:00,
2013-05-20 23:20:00,52.7,49.3,30.07,NE,45,4.0,7.0,88,0.00,,,0.02,meteohub,2013-05-20 22:20:00,
2013-05-20 23:25:00,52.7,49.3,30.07,East,90,5.0,7.0,88,0.00,,,0.02,meteohub,2013-05-20 22:25:00,
2013-05-20 23:30:00,52.5,48.7,30.10,ESE,112,6.0,7.0,87,0.00,,,0.02,meteohub,2013-05-20 22:30:00,
2013-05-20 23:35:00,52.3,48.6,30.10,SE,135,5.0,7.0,87,0.00,,,0.02,meteohub,2013-05-20 22:35:00,
2013-05-20 23:40:00,52.3,48.6,30.10,ESE,112,6.0,7.0,87,0.00,,,0.02,meteohub,2013-05-20 22:40:00,
2013-05-20 23:45:00,52.2,48.4,30.07,ESE,112,6.0,6.0,87,0.00,,,0.02,meteohub,2013-05-20 22:45:00,
2013-05-20 23:50:00,52.0,48.2,30.07,SSE,158,4.0,6.0,87,0.00,,,0.02,meteohub,2013-05-20 22:50:00,
2013-05-20 23:55:00,52.0,48.6,30.07,SE,135,5.0,6.0,88,0.00,,,0.02,meteohub,2013-05-20 22:55:00,